Lexington Weather

Lexington, Massachusetts, USA

34°F
4/16/2021 11:04am 
  • Lexington Conditions: Light snow, Mist, Overcast
  • Temperature: 34.0°F / 1.1°CWarmer 0.2°F than last hour.
  • Dew Point: 32.7°FIncreased 0.2°Fsince last hour.
  • Relative Humidity: 95
  • Wind: Wind from NNW NNW 2 mph, 10-min avg: 2 mph, gust: 4 mph
  • Barometer: 29.46 inFalling 0.03  inHg/hr Falling Slowly
  • Visibility: 1 mile
  • Snow Today: 1.7 in
  •   

Regional Weather Roundup
for Boston / Norton, MA

        
000
ASUS41 KBOX 131805
RWRBOX

REGIONAL WEATHER ROUNDUP
NATIONAL WEATHER SERVICE BOSTON/NORTON MA
200 PM EDT TUE APR 13 2021

NOTE:  "FAIR" INDICATES FEW OR NO CLOUDS BELOW 12,000 FEET WITH NO 
SIGNIFICANT WEATHER AND/OR OBSTRUCTIONS TO VISIBILITY.

MAZALL-131900-
EASTERN MASSACHUSETTS
  
CITY           SKY/WX    TMP DP  RH WIND       PRES   REMARKS
BOSTON         PTSUNNY   56  40  55 E16       30.03F                  
6HR MIN TEMP:  51; 6HR MAX TEMP:  58;                                

BEVERLY        NOT AVBL                                               
LAWRENCE       CLOUDY    60  40  47 E7        30.03F                  
BEDFORD        PTSUNNY   62  41  46 N8G17     30.01F                  
BLUE HILL        N/A     54  38  54 NE14G22   30.01F                  
NORWOOD        CLOUDY    58  38  47 E14G23    30.02F                  
MARSHFIELD     SUNNY     54  41  62 VRB6      30.04S                  
PLYMOUTH       PTSUNNY   52  39  61 NE17G31   30.03R                  
TAUNTON        CLOUDY    55  38  52 N8G21     30.02S                  
NEW BEDFORD    CLOUDY    54  39  57 NE14G30   30.01S                  
$$

MAZALL-131900-
CAPE COD AND THE ISLANDS
  
CITY           SKY/WX    TMP DP  RH WIND       PRES   REMARKS
FALMOUTH       CLOUDY    48  39  71 NE14G23   30.02R                  
HYANNIS        CLOUDY    50  42  74 N13G25    29.99R                  
CHATHAM        CLOUDY    49  40  71 NE12G23   30.01R                  
PROVINCETOWN     N/A     50  43  77 N10       30.04R                  
NANTUCKET      CLOUDY    48  40  73 N23G35    29.99R                  
MARTHAS VNYRD  CLOUDY    51  40  65 NE17G25   30.00R                  
$$
 
MAZALL-131900-
CENTRAL AND WESTERN MASSACHUSETTS
  
CITY           SKY/WX    TMP DP  RH WIND       PRES   REMARKS
WORCESTER      CLOUDY    58  39  49 E12       30.01F                  
6HR MIN TEMP:  47; 6HR MAX TEMP:  59;                                

FITCHBURG      PTSUNNY   61  40  45 NE9       30.01F                  
ORANGE         CLOUDY    63  40  42 NE8       30.01S                  
SPRINGFIELD    PTSUNNY   64  40  40 VRB5      29.99F                  
WESTFIELD      MOSUNNY   65  41  41 N8        30.00F                  
NORTH ADAMS    CLOUDY    61  41  47 W7        30.01S                  
PITTSFIELD     CLOUDY    59  40  49 NW9       30.00S                  
$$
 
RIZALL-131900-
RHODE ISLAND
  
CITY           SKY/WX    TMP DP  RH WIND       PRES   REMARKS
PROVIDENCE     CLOUDY    57  39  51 NE15      30.02S                  
6HR MIN TEMP:  49; 6HR MAX TEMP:  57;                                

NEWPORT        CLOUDY    52  39  61 N14G22    30.01S                  
BLOCK ISLAND   CLOUDY    51  40  65 NE13G18   30.02S                  
SMITHFIELD     PTSUNNY   55  41  59 NE9       30.01F                  
WESTERLY       CLOUDY    57  39  51 NE8       30.01S                  
$$
 
CTZALL-131900-
CONNECTICUT
  
CITY           SKY/WX    TMP DP  RH WIND       PRES   REMARKS
BRADLEY INTL   MOSUNNY   65  40  39 N9        30.00F                  
6HR MIN TEMP:  46; 6HR MAX TEMP:  65;                                

HARTFORD       MOSUNNY   64  41  42 N12G17    30.00F                  
BRIDGEPORT     CLOUDY    55  43  63 S9        30.02S                  
DANBURY        CLOUDY    59  41  51 N9        30.04F                  
GROTON         CLOUDY    59  40  49 NE10G22   30.00S                  
NEW HAVEN      PTSUNNY   64  42  44 NE14      30.01S                  
CHESTER        CLOUDY    63  37  39 VRB7G16   30.00S                  
MERIDEN        MOSUNNY   65  39  38 N14G20    30.01S                  
WILLIMANTIC    CLOUDY    61  39  44 E9G18     30.00F                  
OXFORD         PTSUNNY   60  43  53 NE12      30.02S                  
$$

MEZ002-015-021-024-NHZ003-005-008-011-012-014-VTZ005-008-131900-
NORTHERN NEW ENGLAND
  
CITY           SKY/WX    TMP DP  RH WIND       PRES   REMARKS
PORTLAND ME    MOSUNNY   62  41  46 N6G17     30.02F                  
6HR MIN TEMP:  48; 6HR MAX TEMP:  62;                                

BANGOR ME      PTSUNNY   59  38  45 N14G24    30.03F                  
CONCORD NH     CLOUDY    63  39  41 N3        30.02F                  
MANCHESTER NH  PTSUNNY   63  38  39 VRB7      30.00F                  
NASHUA NH      PTSUNNY   61  40  45 E8        30.02F                  
PORTSMOUTH NH  MOSUNNY   61  38  42 E9        30.03S                  
JAFFREY NH     CLOUDY    60  39  45 VRB5      30.01F                  
KEENE NH       CLOUDY    62  42  47 VRB5      30.00F                  
BURLINGTON VT  MOSUNNY   64  38  38 NW13      30.03F                  
MT. WASHINGTON NOT AVBL                                               
$$

NYZ052-076-131900-
EASTERN NEW YORK
  
CITY           SKY/WX    TMP DP  RH WIND       PRES   REMARKS
ALBANY         PTSUNNY   60  42  51 N7        30.04S                  
6HR MIN TEMP:  41; 6HR MAX TEMP:  61;                                

NEW YORK CITY  MOSUNNY   59  36  42 NW10      30.03F                  
6HR MIN TEMP:  46; 6HR MAX TEMP:  60;                                

$$
 
ANZALL-131900-
MARINE OBSERVATIONS
  
STATION/POSITION TIME  TEMP    WIND        PRES    VSBY  WAVE
                       AIR SEA DIR/SP/G                  HT/PER
                 (UTC) (F)     (DEG/KT/KT) (MB)    (MI)  (FT/S)
BOSTON BUOY      1750   46 45   30/  8/ 10 1017.6R         4/ 8
BUZZARDS BAY     1700           30/ 24/ 26 1016.7S
NANTUCKET SOUND  1750      47                N/A           4/ 4
MASS BAY-STELLWA 1704   47      10/ 10/ 12 1016.0R  1 7/8  4/ 6
ISLE OF SHOALS   1700   48      50/ 14/ 15 1016.3F
S OF BLOCK IS    1726      44                N/A           4/ 5
$$

......................KEY.........................
  SKY/WX - SKY CONDITION/PRESENT WEATHER
  TMP    - TEMPERATURE IN FAHRENHEIT
  DWPT   - DEWPOINT IN FAHRENHEIT
  RH     - RELATIVE HUMIDITY IN PERCENT
  WIND   - DIRECTION AND SPEED IN MPH
  PRES   - MEAN SEA LEVEL PRESSURE IN INCHES OF HG
  WCI    - WIND CHILL INDEX
  VSB    - VISIBILITY IN MILES
  HX     - HEAT INDEX
  TC     - TEMPERATURE IN CELSIUS
  VRB    - VARIABLE WIND DIRECTION
  N/A    - NOT AVAILABLE
  
      

Other recent Regional Weather Roundups

Fri Apr 16, 10:05am

Fri Apr 16, 9:04am

Fri Apr 16, 8:04am

Fri Apr 16, 7:04am

Fri Apr 16, 6:04am

Fri Apr 16, 5:04am

Fri Apr 16, 4:04am

Fri Apr 16, 3:04am

Fri Apr 16, 2:04am

Fri Apr 16, 1:04am

Fri Apr 16, 12:04am

Thu Apr 15, 11:05pm

Thu Apr 15, 10:04pm

Thu Apr 15, 9:04pm

Thu Apr 15, 8:04pm

Thu Apr 15, 7:05pm

Thu Apr 15, 6:04pm

Thu Apr 15, 5:05pm

Thu Apr 15, 4:04pm

Thu Apr 15, 3:05pm

Thu Apr 15, 2:04pm

Thu Apr 15, 1:05pm

Thu Apr 15, 12:04pm

Thu Apr 15, 11:04am

Thu Apr 15, 10:05am

Thu Apr 15, 9:04am

Thu Apr 15, 8:04am

Thu Apr 15, 7:04am

Thu Apr 15, 6:04am

Thu Apr 15, 5:04am

Thu Apr 15, 4:04am

Thu Apr 15, 3:04am

Thu Apr 15, 2:04am

Thu Apr 15, 1:04am

Thu Apr 15, 12:04am

Wed Apr 14, 11:04pm

Wed Apr 14, 10:04pm

Wed Apr 14, 9:04pm

Wed Apr 14, 8:04pm

Wed Apr 14, 7:04pm

Wed Apr 14, 6:04pm

Wed Apr 14, 5:05pm

Wed Apr 14, 4:04pm

Wed Apr 14, 3:05pm

Wed Apr 14, 2:04pm

Wed Apr 14, 1:05pm

Wed Apr 14, 12:04pm

Wed Apr 14, 11:04am

Wed Apr 14, 10:04am

Wed Apr 14, 9:04am

Wed Apr 14, 8:04am

Wed Apr 14, 7:04am

Wed Apr 14, 6:04am

Wed Apr 14, 5:04am

Wed Apr 14, 4:04am

Wed Apr 14, 3:04am

Wed Apr 14, 2:04am

Wed Apr 14, 1:04am

Wed Apr 14, 12:04am

Tue Apr 13, 11:04pm

Tue Apr 13, 10:05pm

Tue Apr 13, 9:05pm

Tue Apr 13, 8:05pm

Tue Apr 13, 7:04pm

Tue Apr 13, 6:04pm

Tue Apr 13, 5:05pm

Tue Apr 13, 4:04pm

Tue Apr 13, 3:04pm

Tue Apr 13, 1:04pm

Tue Apr 13, 12:05pm

Tue Apr 13, 11:05am

Tue Apr 13, 10:04am

Tue Apr 13, 9:04am

Tue Apr 13, 8:04am

Tue Apr 13, 7:04am

Tue Apr 13, 6:04am

Tue Apr 13, 5:04am

Tue Apr 13, 4:04am

Tue Apr 13, 3:04am

Tue Apr 13, 2:04am

Tue Apr 13, 1:04am

Tue Apr 13, 12:05am

Mon Apr 12, 11:04pm

Mon Apr 12, 10:04pm

Mon Apr 12, 9:04pm

Mon Apr 12, 8:04pm

Mon Apr 12, 7:05pm

Mon Apr 12, 6:04pm

Mon Apr 12, 5:04pm

Mon Apr 12, 4:04pm

Mon Apr 12, 3:05pm

Mon Apr 12, 2:04pm

Mon Apr 12, 1:05pm

Mon Apr 12, 12:04pm

Mon Apr 12, 11:04am

Mon Apr 12, 10:04am

Mon Apr 12, 9:04am

Mon Apr 12, 8:04am

Mon Apr 12, 7:04am

Mon Apr 12, 6:04am

Mon Apr 12, 5:04am

Mon Apr 12, 4:04am

Mon Apr 12, 3:04am

Mon Apr 12, 2:04am

Mon Apr 12, 1:05am

Mon Apr 12, 12:04am

Sun Apr 11, 11:04pm

Sun Apr 11, 10:04pm

Sun Apr 11, 9:04pm

Sun Apr 11, 8:04pm

Sun Apr 11, 7:04pm

Sun Apr 11, 6:05pm

Sun Apr 11, 5:05pm

Sun Apr 11, 4:04pm

Sun Apr 11, 3:05pm

Sun Apr 11, 2:05pm

Sun Apr 11, 1:05pm

Sun Apr 11, 12:04pm

Sun Apr 11, 11:05am

Sun Apr 11, 10:05am

Sun Apr 11, 9:04am

Sun Apr 11, 8:04am

Sun Apr 11, 7:04am

Sun Apr 11, 6:04am

Sun Apr 11, 5:04am

Sun Apr 11, 4:04am

Sun Apr 11, 3:04am

Sun Apr 11, 2:04am

Sun Apr 11, 1:05am

Sun Apr 11, 12:04am

Sat Apr 10, 11:05pm

Sat Apr 10, 10:04pm

Sat Apr 10, 9:04pm

Sat Apr 10, 8:04pm

Sat Apr 10, 7:05pm

Sat Apr 10, 6:04pm

Sat Apr 10, 5:04pm

Sat Apr 10, 4:04pm

Sat Apr 10, 3:04pm

Sat Apr 10, 2:05pm

Sat Apr 10, 1:04pm

Sat Apr 10, 12:04pm

Sat Apr 10, 11:04am

Sat Apr 10, 10:04am

Sat Apr 10, 9:04am

Sat Apr 10, 8:04am

Sat Apr 10, 7:04am

Sat Apr 10, 6:04am

Sat Apr 10, 5:04am

Sat Apr 10, 4:04am

Sat Apr 10, 3:04am

Sat Apr 10, 2:04am

Sat Apr 10, 1:05am

Sat Apr 10, 12:04am

Fri Apr 9, 11:04pm

Fri Apr 9, 10:05pm

Fri Apr 9, 9:04pm

Fri Apr 9, 8:05pm

Fri Apr 9, 7:05pm

Fri Apr 9, 6:04pm

Fri Apr 9, 5:04pm

Fri Apr 9, 4:05pm

Fri Apr 9, 3:05pm

Fri Apr 9, 2:04pm

Fri Apr 9, 1:04pm

Fri Apr 9, 12:04pm

Fri Apr 9, 11:05am

Meta data:

ID: 6d7c424f-e6d1-472c-9e4e-7c44b5e597f6
Link: https://api.weather.gov/products/6d7c424f-e6d1-472c-9e4e-7c44b5e597f6